sat.trackr.live / text

‹ back to catalog

SCISAT 1

NORAD 27858 · 2003-036A

PAYLOAD ACTIVE UNKNOWN

§ Identity

Operator
Country
CA
Launch date
2003-08-13
Launch site
WRAS
Launch vehicle
Mass (kg)
RCS (m²)
0.68

Purposes: science

External: N2YO · Heavens-Above · Gunter

§ Orbital elements

Epoch: 2026-09-19T21:34:36.588576Z

Period
97.20 min
Inclination
73.9324°
Eccentricity
0.0006939
Mean motion
14.81541737 rev/d
Perigee alt
619.6 km
Apogee alt
629.3 km
Semi-major
7,002.6 km
B*
4.2268e-5
RAAN
343.1469°
Arg perigee
14.1618°
Mean anomaly
345.9752°
Rev number
24,547

§ Raw data

SCISAT 11 27858U 03036A   26262.89903459  .00000295  00000+0  42268-4 0  99982 27858  73.9324 343.1469 0006939  14.1618 345.9752 14.81541737245476

JSON: /api/v1/satellites/27858 · /tle

For live sub-satellite position, see the globe view (requires WebGL).

§ Visibility from observer

Set your observer location to see the next 7 days of passes ≥ 10°. The values pass through the URL so the page stays shareable.

No JS? Fill the form by hand. The geolocation button needs JavaScript.

§ Radio — SatNOGS DB

ModeDescriptionDownlinkUplink
BPSK S-band telemetry 2.232 GHz

1 transmitter · refreshed weekly from db.satnogs.org